Appleton, WI

2:25 PM CST on December 05, 2019 (GMT -0600)
Outagamie County Regional

Weather History for KATW - October, 2019

Change the Weather History Date:

Friday, October 4, 2019

  Actual Average Record
Temperature  
Mean Temperature 46 °F -  
Max Temperature 51 °F 61 °F 83 °F (1967)
Min Temperature 41 °F 44 °F 29 °F (1989)
Degree Days  
Heating Degree Days 19    
Moisture  
Dew Point 36 °F    
Average Humidity 68    
Maximum Humidity 87    
Minimum Humidity 54    
Precipitation  
Precipitation 0.00 in - - ()
Sea Level Pressure  
Sea Level Pressure 30.37 in    
Wind  
Wind Speed 8 mph ()    
Max Wind Speed 14 mph    
Max Gust Speed -    
Visibility 10.0 miles    
Events      
Averages and records for this station are not official NWS values.
T = Trace of Precipitation, MM = Missing Value Source: Averaged Metar Reports

Daily Weather History Graph

Daily Weather History Graph

Search for Another Location

Airport or City:

Astronomy

Oct. 04, 2019 Rise Set
Actual Time 6:55 AM CDT 6:29 PM CDT
Civil Twilight 6:26 AM CDT 6:58 PM CDT
Nautical Twilight 5:52 AM CDT 7:32 PM CDT
Astronomical Twilight 5:18 AM CDT 8:05 PM CDT
Moon 1:39 PM CDT (10/4) 10:46 PM CDT (10/4)
Length of Visible Light 12h 32m
Length of Day
11h 34m
Waxing Crescent, 40% of the Moon is Illuminated
Oct 4
Waxing Crescent
Oct 5
First Quarter
Oct 13
Full
Oct 21
Last Quarter
Oct 27
New

Hourly Weather History & Observations

Time (CDT) Temp. Windchill Dew Point Humidity Pressure Visibility Wind Dir Wind Speed Gust Speed Precip Events Conditions
12:15 AM 44.6 °F 39.2 °F 37.4 °F 76% 30.28 in 10.0 mi NNW 10.4 mph - N/A   Overcast
12:35 AM 46.4 °F 41.5 °F 37.4 °F 71% 30.29 in 10.0 mi NNW 10.4 mph - N/A   Overcast
12:55 AM 44.6 °F 39.2 °F 35.6 °F 71% 30.29 in 10.0 mi NNW 10.4 mph - N/A   Overcast
1:15 AM 44.6 °F 38.4 °F 35.6 °F 71% 30.30 in 10.0 mi NNW 12.7 mph - N/A   Overcast
1:35 AM 44.6 °F 40.2 °F 37.4 °F 76% 30.31 in 10.0 mi NNW 8.1 mph - N/A   Overcast
1:55 AM 44.6 °F 40.2 °F 37.4 °F 76% 30.32 in 10.0 mi NNW 8.1 mph - N/A   Mostly Cloudy
2:15 AM 44.6 °F 40.2 °F 37.4 °F 76% 30.32 in 10.0 mi NNW 8.1 mph - N/A   Mostly Cloudy
2:35 AM 44.6 °F 40.2 °F 35.6 °F 71% 30.33 in 10.0 mi NNW 8.1 mph - N/A   Mostly Cloudy
3:35 AM 42.8 °F 37.5 °F 37.4 °F 81% 30.34 in 10.0 mi North 9.2 mph - N/A   Overcast
3:55 AM 42.8 °F 37.0 °F 35.6 °F 76% 30.35 in 10.0 mi North 10.4 mph - N/A   Overcast
4:15 AM 42.8 °F 37.0 °F 35.6 °F 76% 30.36 in 10.0 mi North 10.4 mph - N/A   Scattered Clouds
4:35 AM 41.0 °F 34.3 °F 37.4 °F 87% 30.36 in 10.0 mi North 11.5 mph - N/A   Clear
4:55 AM 41.0 °F 34.7 °F 37.4 °F 87% 30.37 in 10.0 mi North 10.4 mph - N/A   Clear
5:15 AM 41.0 °F 35.2 °F 37.4 °F 87% 30.38 in 10.0 mi North 9.2 mph - N/A   Scattered Clouds
5:20 AM 42.8 °F 37.0 °F 37.4 °F 81% 30.37 in 10.0 mi North 10.4 mph - N/A   Scattered Clouds
5:45 AM 42.8 °F 35.8 °F 39.2 °F 87% 30.38 in 10.0 mi NNE 13.8 mph - N/A   Mostly Cloudy
6:45 AM 41.0 °F 34.3 °F 33.8 °F 76% 30.40 in 10.0 mi North 11.5 mph - N/A   Mostly Cloudy
7:45 AM 42.8 °F 38.0 °F 33.8 °F 70% 30.42 in 10.0 mi North 8.1 mph - N/A   Mostly Cloudy
8:45 AM 44.6 °F 40.2 °F 33.8 °F 66% 30.45 in 10.0 mi North 8.1 mph - N/A   Mostly Cloudy
9:45 AM 46.4 °F 42.9 °F 33.8 °F 62% 30.46 in 10.0 mi NNE 6.9 mph - N/A   Mostly Cloudy
10:45 AM 50.0 °F - 35.6 °F 58% 30.45 in 10.0 mi NNE 6.9 mph - N/A   Mostly Cloudy
11:45 AM 51.8 °F - 35.6 °F 54% 30.44 in 10.0 mi ENE 11.5 mph - N/A   Mostly Cloudy
12:45 PM 51.8 °F - 35.6 °F 54% 30.44 in 10.0 mi ENE 4.6 mph - N/A   Mostly Cloudy
1:45 PM 51.8 °F - 35.6 °F 54% 30.43 in 10.0 mi ENE 10.4 mph - N/A   Mostly Cloudy
2:45 PM 51.8 °F - 35.6 °F 54% 30.41 in 10.0 mi East 6.9 mph - N/A   Mostly Cloudy
3:45 PM 51.8 °F - 37.4 °F 58% 30.40 in 10.0 mi ENE 9.2 mph - N/A   Mostly Cloudy
4:45 PM 51.8 °F - 35.6 °F 54% 30.39 in 10.0 mi ENE 9.2 mph - N/A   Mostly Cloudy
5:45 PM 51.8 °F - 37.4 °F 58% 30.38 in 10.0 mi NE 8.1 mph - N/A   Mostly Cloudy
6:45 PM 50.0 °F - 37.4 °F 62% 30.37 in 10.0 mi East 5.8 mph - N/A   Mostly Cloudy
7:45 PM 50.0 °F - 35.6 °F 58% 30.35 in 10.0 mi East 5.8 mph - N/A   Mostly Cloudy
8:45 PM 48.2 °F - 35.6 °F 62% 30.37 in 10.0 mi East 5.8 mph - N/A   Mostly Cloudy
9:45 PM 48.2 °F - 33.8 °F 58% 30.36 in 10.0 mi East 5.8 mph - N/A   Mostly Cloudy
10:45 PM 48.2 °F - 35.6 °F 62% 30.34 in 10.0 mi East 4.6 mph - N/A   Mostly Cloudy
10:55 PM 48.2 °F - 35.6 °F 62% 30.34 in 10.0 mi ESE 3.5 mph - N/A   Overcast
11:15 PM 48.2 °F - 35.6 °F 62% 30.34 in 10.0 mi East 4.6 mph - N/A   Overcast
11:35 PM 48.2 °F - 35.6 °F 62% 30.34 in 10.0 mi East 4.6 mph - N/A   Overcast
11:55 PM 48.2 °F - 35.6 °F 62% 30.33 in 10.0 mi ESE 3.5 mph - N/A   Overcast